Yankton, SD

7:50 PM CDT on September 23, 2017 (GMT -0500)
Gurney Municipal

Weather History for KYKN - October, 2013

Change the Weather History Date:

Saturday, October 12, 2013

  Actual Average Record
Temperature  
Mean Temperature 50 °F -  
Max Temperature 62 °F 65 °F 90 °F (1956)
Min Temperature 37 °F 38 °F 19 °F (1987)
Degree Days  
Heating Degree Days 16    
Moisture  
Dew Point 32 °F    
Average Humidity 48    
Maximum Humidity 70    
Minimum Humidity 26    
Precipitation  
Precipitation 0.00 in - - ()
Sea Level Pressure  
Sea Level Pressure 30.07 in    
Wind  
Wind Speed 16 mph (West)    
Max Wind Speed 26 mph    
Max Gust Speed 32 mph    
Visibility 10 miles    
Events      
Averages and records for this station are not official NWS values.
T = Trace of Precipitation, MM = Missing Value Source: NWS Daily Summary

Daily Weather History Graph

Daily Weather History Graph

Search for Another Location

Airport or City:

Trip Planner

Search our weather history database for the weather conditions in past years. The results will help you decide how hot, cold, wet, or windy it might be!

Date:

Astronomy

Oct. 12, 2013 Rise Set
Actual Time 7:39 AM CDT 6:51 PM CDT
Civil Twilight 7:11 AM CDT 7:19 PM CDT
Nautical Twilight 6:38 AM CDT 7:52 PM CDT
Astronomical Twilight 6:05 AM CDT 8:25 PM CDT
Moon 3:10 PM CDT (10/12) 12:35 AM CDT (10/12)
Length of Visible Light 12h 08m
Length of Day
11h 11m
First Quarter, 59% of the Moon is Illuminated
Oct 12
First Quarter
Oct 18
Full
Oct 26
Last Quarter
Nov 3
New
Nov 9
First Quarter

Hourly Weather History & Observations

Time (CDT) Temp. Windchill Dew Point Humidity Pressure Visibility Wind Dir Wind Speed Gust Speed Precip Events Conditions
12:15 AM 51.8 °F - 39.2 °F 62% 29.85 in 10.0 mi West 16.1 mph 23.0 mph N/A   Clear
12:35 AM 51.8 °F - 39.2 °F 62% 29.85 in 10.0 mi West 15.0 mph - N/A   Clear
12:55 AM 51.8 °F - 39.2 °F 62% 29.86 in 10.0 mi West 13.8 mph - N/A   Clear
1:15 AM 51.8 °F - 39.2 °F 62% 29.86 in 10.0 mi West 16.1 mph 21.9 mph N/A   Clear
1:35 AM 51.8 °F - 37.4 °F 58% 29.87 in 10.0 mi West 17.3 mph 24.2 mph N/A   Clear
1:55 AM 51.8 °F - 37.4 °F 58% 29.88 in 10.0 mi West 18.4 mph 21.9 mph N/A   Clear
2:15 AM 51.8 °F - 37.4 °F 58% 29.89 in 10.0 mi West 19.6 mph 26.5 mph N/A   Clear
2:35 AM 50.0 °F - 37.4 °F 62% 29.90 in 10.0 mi West 16.1 mph - N/A   Clear
2:55 AM 50.0 °F - 35.6 °F 58% 29.91 in 10.0 mi West 15.0 mph 20.7 mph N/A   Clear
3:15 AM 48.2 °F - 37.4 °F 66% 29.92 in 10.0 mi West 12.7 mph - N/A   Clear
3:35 AM 48.2 °F - 35.6 °F 62% 29.92 in 10.0 mi West 13.8 mph 19.6 mph N/A   Clear
3:55 AM 48.2 °F - 35.6 °F 62% 29.93 in 10.0 mi WSW 12.7 mph - N/A   Clear
4:15 AM 48.2 °F - 35.6 °F 62% 29.94 in 10.0 mi WSW 13.8 mph - N/A   Clear
4:35 AM 48.2 °F - 35.6 °F 62% 29.94 in 10.0 mi WSW 13.8 mph - N/A   Clear
4:55 AM 48.2 °F - 35.6 °F 62% 29.95 in 10.0 mi WSW 11.5 mph - N/A   Clear
5:15 AM 48.2 °F - 35.6 °F 62% 29.96 in 10.0 mi WSW 15.0 mph - N/A   Clear
5:35 AM 48.2 °F - 35.6 °F 62% 29.97 in 10.0 mi West 13.8 mph - N/A   Clear
5:55 AM 48.2 °F - 35.6 °F 62% 29.97 in 10.0 mi West 16.1 mph 20.7 mph N/A   Clear
6:15 AM 46.4 °F 39.8 °F 33.8 °F 62% 29.98 in 10.0 mi West 16.1 mph 23.0 mph N/A   Clear
6:35 AM 46.4 °F 39.8 °F 33.8 °F 62% 29.98 in 10.0 mi West 16.1 mph 23.0 mph N/A   Clear
6:55 AM 46.4 °F 40.4 °F 33.8 °F 62% 29.99 in 10.0 mi WSW 13.8 mph 21.9 mph N/A   Clear
7:15 AM 46.4 °F 39.5 °F 33.8 °F 62% 30.00 in 10.0 mi West 17.3 mph 21.9 mph N/A   Clear
7:35 AM 46.4 °F 39.5 °F 33.8 °F 62% 30.00 in 10.0 mi West 17.3 mph 23.0 mph N/A   Clear
7:55 AM 46.4 °F 39.2 °F 33.8 °F 62% 30.00 in 10.0 mi West 18.4 mph 23.0 mph N/A   Clear
8:15 AM 46.4 °F 39.5 °F 33.8 °F 62% 30.01 in 10.0 mi West 17.3 mph - N/A   Clear
8:35 AM 48.2 °F - 32.0 °F 54% 30.02 in 10.0 mi West 17.3 mph 23.0 mph N/A   Clear
8:55 AM 48.2 °F - 33.8 °F 58% 30.03 in 10.0 mi West 15.0 mph 21.9 mph N/A   Clear
9:15 AM 50.0 °F - 32.0 °F 50% 30.04 in 10.0 mi West 19.6 mph 26.5 mph N/A   Clear
9:35 AM 51.8 °F - 33.8 °F 50% 30.05 in 10.0 mi West 17.3 mph 24.2 mph N/A   Clear
9:55 AM 51.8 °F - 33.8 °F 50% 30.06 in 10.0 mi West 19.6 mph 27.6 mph N/A   Clear
10:15 AM 53.6 °F - 33.8 °F 47% 30.06 in 10.0 mi WNW 21.9 mph 28.8 mph N/A   Clear
10:35 AM 53.6 °F - 33.8 °F 47% 30.07 in 10.0 mi West 19.6 mph 29.9 mph N/A   Clear
10:55 AM 55.4 °F - 33.8 °F 44% 30.08 in 10.0 mi West 23.0 mph 26.5 mph N/A   Clear
11:15 AM 57.2 °F - 33.8 °F 41% 30.09 in 10.0 mi West 21.9 mph 29.9 mph N/A   Clear
11:35 AM 57.2 °F - 32.0 °F 38% 30.10 in 10.0 mi West 20.7 mph 31.1 mph N/A   Clear
11:55 AM 57.2 °F - 30.2 °F 36% 30.10 in 10.0 mi West 24.2 mph 31.1 mph N/A   Clear
12:15 PM 59.0 °F - 30.2 °F 34% 30.11 in 10.0 mi WNW 26.5 mph 32.2 mph N/A   Clear
12:35 PM 60.8 °F - 30.2 °F 31% 30.11 in 10.0 mi West 25.3 mph 31.1 mph N/A   Clear
12:55 PM 60.8 °F - 30.2 °F 31% 30.12 in 10.0 mi WNW 20.7 mph 29.9 mph N/A   Clear
1:15 PM 60.8 °F - 30.2 °F 31% 30.12 in 10.0 mi West 21.9 mph 31.1 mph N/A   Clear
1:35 PM 60.8 °F - 30.2 °F 31% 30.12 in 10.0 mi West 24.2 mph 28.8 mph N/A   Clear
1:55 PM 60.8 °F - 28.4 °F 29% 30.12 in 10.0 mi West 21.9 mph 27.6 mph N/A   Clear
2:15 PM 60.8 °F - 28.4 °F 29% 30.11 in 10.0 mi West 21.9 mph 32.2 mph N/A   Clear
2:35 PM 62.6 °F - 28.4 °F 27% 30.12 in 10.0 mi WNW 20.7 mph 26.5 mph N/A   Clear
2:55 PM 62.6 °F - 28.4 °F 27% 30.11 in 10.0 mi West 19.6 mph 28.8 mph N/A   Clear
3:15 PM 62.6 °F - 28.4 °F 27% 30.12 in 10.0 mi WNW 21.9 mph 29.9 mph N/A   Clear
3:35 PM 62.6 °F - 28.4 °F 27% 30.12 in 10.0 mi West 19.6 mph 24.2 mph N/A   Clear
3:55 PM 62.6 °F - 26.6 °F 26% 30.12 in 10.0 mi West 17.3 mph 28.8 mph N/A   Clear
4:15 PM 62.6 °F - 26.6 °F 26% 30.12 in 10.0 mi West 18.4 mph 23.0 mph N/A   Clear
4:35 PM 62.6 °F - 28.4 °F 27% 30.13 in 10.0 mi West 20.7 mph 26.5 mph N/A   Clear
4:55 PM 60.8 °F - 26.6 °F 27% 30.13 in 10.0 mi West 19.6 mph 25.3 mph N/A   Clear
5:15 PM 60.8 °F - 26.6 °F 27% 30.14 in 10.0 mi WNW 19.6 mph 26.5 mph N/A   Clear
5:35 PM 60.8 °F - 26.6 °F 27% 30.14 in 10.0 mi West 17.3 mph - N/A   Clear
5:55 PM 59.0 °F - 26.6 °F 29% 30.16 in 10.0 mi WNW 16.1 mph 21.9 mph N/A   Clear
6:15 PM 57.2 °F - 26.6 °F 31% 30.16 in 10.0 mi WNW 10.4 mph - N/A   Clear
6:35 PM 55.4 °F - 28.4 °F 36% 30.17 in 10.0 mi WNW 8.1 mph - N/A   Clear
6:55 PM 53.6 °F - 28.4 °F 38% 30.17 in 10.0 mi WNW 8.1 mph - N/A   Clear
7:15 PM 51.8 °F - 28.4 °F 41% 30.18 in 10.0 mi WNW 8.1 mph - N/A   Clear
7:35 PM 51.8 °F - 28.4 °F 41% 30.19 in 10.0 mi West 6.9 mph - N/A   Clear
7:55 PM 51.8 °F - 28.4 °F 41% 30.20 in 10.0 mi West 9.2 mph - N/A   Clear
8:15 PM 48.2 °F - 28.4 °F 46% 30.20 in 10.0 mi West 9.2 mph - N/A   Clear
8:35 PM 46.4 °F 42.4 °F 30.2 °F 53% 30.21 in 10.0 mi West 8.1 mph - N/A   Clear
8:55 PM 46.4 °F 42.4 °F 28.4 °F 50% 30.22 in 10.0 mi West 8.1 mph - N/A   Clear
9:15 PM 46.4 °F 42.4 °F 28.4 °F 50% 30.23 in 10.0 mi West 8.1 mph - N/A   Clear
9:35 PM 46.4 °F 42.4 °F 28.4 °F 50% 30.23 in 10.0 mi West 8.1 mph - N/A   Clear
9:55 PM 46.4 °F 42.9 °F 28.4 °F 50% 30.24 in 10.0 mi West 6.9 mph - N/A   Clear
10:15 PM 46.4 °F 42.9 °F 28.4 °F 50% 30.25 in 10.0 mi West 6.9 mph - N/A   Clear
10:35 PM 44.6 °F 40.2 °F 28.4 °F 53% 30.25 in 10.0 mi WNW 8.1 mph - N/A   Clear
10:55 PM 41.0 °F 38.0 °F 28.4 °F 61% 30.26 in 10.0 mi WNW 4.6 mph - N/A   Clear
11:15 PM 39.2 °F 34.2 °F 28.4 °F 65% 30.26 in 10.0 mi NW 6.9 mph - N/A   Clear
11:35 PM 37.4 °F 32.1 °F 28.4 °F 70% 30.27 in 10.0 mi NW 6.9 mph - N/A   Clear
11:55 PM 39.2 °F 34.2 °F 28.4 °F 65% 30.27 in 10.0 mi NW 6.9 mph - N/A   Clear